Mt. Pocono, PA

10:19 PM EDT on October 20, 2017 (GMT -0400)
Pocono Mountains Municipal

Weather History for KMPO - August, 2014

Change the Weather History Date:

Sunday, August 17, 2014

  Actual Average Record
Temperature  
Mean Temperature 63 °F 67 °F  
Max Temperature 74 °F 77 °F 89 °F (1997)
Min Temperature 51 °F 57 °F 35 °F (1979)
Degree Days  
Heating Degree Days 2 1  
Month to date heating degree days 27 17  
Since 1 June heating degree days 106 139  
Since 1 July heating degree days 51 39  
Cooling Degree Days 0 3  
Month to date cooling degree days 20 65  
Year to date cooling degree days 195 267  
Since 1 June cooling degree days 188 248  
Growing Degree Days 12 (Base 50)    
Moisture  
Dew Point 55 °F    
Average Humidity 71    
Maximum Humidity 93    
Minimum Humidity 49    
Precipitation  
Precipitation 0.15 in 0.15 in 2.17 in (1966)
Month to date precipitation 1.39 2.61  
Year to date precipitation 27.29 29.13  
Sea Level Pressure  
Sea Level Pressure 29.92 in    
Wind  
Wind Speed 8 mph (NW)    
Max Wind Speed 21 mph    
Max Gust Speed 27 mph    
Visibility 9 miles    
Events Rain    
T = Trace of Precipitation, MM = Missing Value Source: NWS Daily Summary

Daily Weather History Graph

Daily Weather History Graph

Search for Another Location

Airport or City:

Trip Planner

Search our weather history database for the weather conditions in past years. The results will help you decide how hot, cold, wet, or windy it might be!

Date:

Astronomy

Aug. 17, 2014 Rise Set
Actual Time 6:13 AM EDT 7:57 PM EDT
Civil Twilight 5:43 AM EDT 8:26 PM EDT
Nautical Twilight 5:07 AM EDT 9:02 PM EDT
Astronomical Twilight 4:29 AM EDT 9:40 PM EDT
Moon No Moon Rise 2:00 PM EDT (8/17)
Length of Visible Light 14h 43m
Length of Day
13h 44m
Waning Gibbous, 48% of the Moon is Illuminated
Aug 17
Waning Gibbous
Aug 25
New
Sep 2
First Quarter
Sep 8
Full
Sep 15
Last Quarter

Hourly Weather History & Observations

Time (EDT) Temp. Dew Point Humidity Pressure Visibility Wind Dir Wind Speed Gust Speed Precip Events Conditions
12:53 AM 61.0 °F 48.9 °F 64% 29.94 in 10.0 mi West 6.9 mph - N/A   Clear
1:53 AM 60.1 °F 50.0 °F 69% 29.91 in 10.0 mi West 4.6 mph - N/A   Clear
3:53 AM 59.0 °F 51.1 °F 75% 29.90 in 10.0 mi West 4.6 mph - N/A   Scattered Clouds
4:53 AM 61.0 °F 50.0 °F 67% 29.90 in 10.0 mi WNW 8.1 mph - N/A   Overcast
5:53 AM 57.0 °F 53.1 °F 87% 29.90 in 10.0 mi WNW 8.1 mph - 0.07 in   Overcast
6:45 AM 57.9 °F 55.0 °F 90% 29.92 in 2.5 mi West 10.4 mph - 0.06 in Rain Rain
6:53 AM 57.9 °F 55.0 °F 90% 29.90 in 4.0 mi West 8.1 mph - 0.07 in Rain Light Rain
7:03 AM 57.9 °F 55.0 °F 90% 29.92 in 8.0 mi WNW 8.1 mph - 0.00 in Rain Light Rain
7:53 AM 57.9 °F 55.9 °F 93% 29.91 in 6.0 mi WNW 10.4 mph - 0.01 in   Overcast
8:11 AM 59.0 °F 57.0 °F 93% 29.93 in 5.0 mi WNW 11.5 mph - N/A   Overcast
8:53 AM 60.1 °F 57.0 °F 90% 29.92 in 5.0 mi WNW 11.5 mph - N/A   Overcast
9:27 AM 62.1 °F 57.9 °F 86% 29.93 in 5.0 mi WNW 9.2 mph - N/A   Mist
9:53 AM 64.0 °F 59.0 °F 84% 29.91 in 8.0 mi NW 10.4 mph - N/A   Overcast
10:00 AM 64.0 °F 59.0 °F 84% 29.94 in 8.0 mi WNW 12.7 mph 17.3 mph N/A   Overcast
10:32 AM 64.0 °F 59.0 °F 84% 29.94 in 9.0 mi NW 11.5 mph - N/A   Overcast
10:53 AM 66.0 °F 59.0 °F 78% 29.92 in 10.0 mi NW 13.8 mph 19.6 mph N/A   Overcast
11:17 AM 66.0 °F 57.9 °F 75% 29.94 in 10.0 mi NNW 13.8 mph 20.7 mph N/A   Mostly Cloudy
11:26 AM 66.9 °F 57.0 °F 70% 29.94 in 10.0 mi NW 12.7 mph 23.0 mph N/A   Scattered Clouds
11:53 AM 69.1 °F 57.9 °F 68% 29.91 in 10.0 mi NW 11.5 mph - N/A   Mostly Cloudy
12:03 PM 69.1 °F 57.9 °F 68% 29.93 in 10.0 mi WNW 16.1 mph 23.0 mph N/A   Mostly Cloudy
12:53 PM 71.1 °F 55.9 °F 59% 29.90 in 10.0 mi NW 17.3 mph 27.6 mph N/A   Partly Cloudy
1:53 PM 70.0 °F 55.9 °F 61% 29.90 in 10.0 mi NNW 16.1 mph 26.5 mph N/A   Mostly Cloudy
2:53 PM 72.0 °F 55.9 °F 57% 29.90 in 10.0 mi NW 11.5 mph 20.7 mph N/A   Partly Cloudy
3:53 PM 69.1 °F 53.1 °F 57% 29.91 in 10.0 mi NW 10.4 mph 20.7 mph N/A   Mostly Cloudy
4:53 PM 72.0 °F 52.0 °F 49% 29.90 in 10.0 mi NW 11.5 mph 18.4 mph N/A   Mostly Cloudy
5:53 PM 68.0 °F 52.0 °F 56% 29.92 in 10.0 mi NNW 6.9 mph - N/A   Overcast
6:53 PM 66.9 °F 52.0 °F 59% 29.93 in 10.0 mi NNW 6.9 mph - N/A   Mostly Cloudy
7:53 PM 64.0 °F 52.0 °F 65% 29.94 in 10.0 mi NW 5.8 mph - N/A   Clear
8:53 PM 60.1 °F 52.0 °F 75% 29.96 in 10.0 mi NW 3.5 mph - N/A   Clear
9:53 PM 55.0 °F 51.1 °F 86% 29.97 in 10.0 mi Calm Calm - N/A   Unknown
10:53 PM 53.1 °F 51.1 °F 93% 29.98 in 10.0 mi West 3.5 mph - N/A   Clear
11:53 PM 52.0 °F 48.9 °F 89% 29.96 in 10.0 mi NNW 3.5 mph - N/A   Clear